Date,TemperatureHighF,TemperatureAvgF,TemperatureLowF,DewpointHighF,DewpointAvgF,DewpointLowF,HumidityHigh,HumidityAvg,HumidityLow,PressureMaxIn,PressureMinIn,WindSpeedMaxMPH,WindSpeedAvgMPH,GustSpeedMaxMPH,PrecipitationSumIn
2013-10-2,82.2,73.2,65.7,0.0,0.0,0.0,0,0,100,30.12,29.98,6,0,7,0.00
2013-10-4,88.3,85.6,81.3,0.0,0.0,0.0,0,0,100,30.13,30.00,6,1,10,0.00
2013-10-6,86.2,78.4,64.0,0.0,0.0,0.0,0,0,100,30.07,29.87,9,2,13,0.00
2013-10-7,72.9,69.5,64.4,0.0,0.0,0.0,0,0,100,30.01,29.78,16,2,18,1.79
2013-10-8,64.0,60.1,56.7,0.0,0.0,0.0,0,0,100,30.23,30.11,21,4,21,0.00
2013-10-9,63.7,58.8,54.3,0.0,0.0,0.0,0,0,100,30.19,30.08,16,6,18,0.03
2013-10-10,59.7,57.3,52.0,0.0,0.0,0.0,0,0,100,30.03,29.89,16,3,18,0.08
2013-10-11,58.3,57.7,57.2,0.0,0.0,0.0,0,0,100,29.93,29.84,10,2,12,0.02
2013-10-13,64.6,61.6,59.7,0.0,0.0,0.0,0,0,100,30.23,30.15,13,3,13,0.13
2013-10-14,66.4,60.7,59.2,0.0,0.0,0.0,0,0,100,30.28,29.53,14,3,14,0.04
2013-10-15,70.7,64.2,56.1,0.0,0.0,0.0,0,0,100,30.20,30.00,5,0,9,0.01
2013-10-18,73.4,67.7,59.5,0.0,0.0,0.0,0,0,100,30.02,29.89,8,1,9,0.00
2013-10-19,56.8,56.8,56.8,0.0,0.0,0.0,0,0,100,29.92,29.92,0,0,1,0.00
2013-10-20,63.7,53.6,43.2,0.0,0.0,0.0,0,0,100,30.13,29.96,7,1,12,0.01
2013-10-21,61.7,43.1,38.3,0.0,0.0,0.0,0,0,100,30.18,30.04,4,0,4,0.00
2013-10-23,68.7,57.0,44.2,0.0,0.0,0.0,0,0,100,29.99,29.58,12,2,15,0.06
2013-10-24,60.4,47.4,35.1,0.0,0.0,0.0,0,0,100,30.15,29.91,16,1,16,0.00
2013-10-25,57.0,46.2,35.8,0.0,0.0,0.0,0,0,100,30.37,30.21,16,2,16,0.00
2013-10-26,59.5,44.4,29.5,0.0,0.0,0.0,0,0,100,30.37,29.96,11,1,19,0.00
2013-10-27,69.4,53.3,43.0,0.0,0.0,0.0,0,0,100,30.12,29.94,8,0,8,0.00
2013-10-28,70.5,60.8,47.7,0.0,0.0,0.0,0,0,100,30.27,30.10,5,0,7,0.00
2013-10-29,73.4,60.1,51.1,0.0,0.0,0.0,0,0,100,30.37,30.18,8,0,8,0.00
2013-10-30,72.9,67.6,58.1,0.0,0.0,0.0,0,0,100,30.32,30.08,12,1,12,0.00
2013-10-31,75.2,68.7,59.7,0.0,0.0,0.0,0,0,100,30.14,29.86,8,2,14,0.00